• In Portugal
  • List of Countries
  • For 7 days
  • Water Temperature
  • Satellite Maps
  • Weather Map
  • Weather Widgets
  • user-avatar
    Login

    Hourly Weather Tappita

    Today, 21 October, Sunday

    Time Temperature Precipitation Wind Pressure Humidity
    00:00 +22°C° 0 mm 0 mps 736 mmHg 97%
    01:00 +22°C° 0 mm 0 mps 736 mmHg 98%
    02:00 +22°C° 0 mm 0 mps 735 mmHg 98%
    03:00 +22°C° 0 mm 0 mps 736 mmHg 99%
    04:00 +21°C° 0 mm 0 mps 736 mmHg 99%
    05:00 +21°C° 0 mm 0 mps 736 mmHg 99%
    06:00 +23°C° 0 mm 0 mps 736 mmHg 93%
    07:00 +24°C° 0 mm 0 mps 737 mmHg 88%
    08:00 +26°C° 0 mm 0 mps 737 mmHg 82%
    09:00 +27°C° 0 mm 0 mps 737 mmHg 78%
    10:00 +30°C° 0 mm 1 mps 737 mmHg 73%
    11:00 +31°C° 0 mm 1 mps 737 mmHg 69%
    12:00 +31°C° 0.4 mm 1 mps 736 mmHg 68%
    13:00 +31°C° 0.4 mm 1 mps 735 mmHg 67%
    14:00 +32°C° 0.4 mm 1 mps 735 mmHg 67%
    15:00 +30°C° 0.4 mm 1 mps 735 mmHg 73%
    16:00 +29°C° 0.4 mm 1 mps 735 mmHg 79%
    17:00 +28°C° 0.4 mm 1 mps 735 mmHg 85%
    18:00 +27°C° 0.3 mm 1 mps 736 mmHg 88%
    19:00 +26°C° 0.3 mm 1 mps 737 mmHg 92%
    20:00 +25°C° 0.3 mm 1 mps 737 mmHg 96%
    21:00 +25°C° 0 mm 1 mps 737 mmHg 96%
    22:00 +24°C° 0 mm 1 mps 737 mmHg 97%
    23:00 +22°C° 0 mm 0 mps 737 mmHg 98%

    Tomorrow, 22 October, Monday

    Time Temperature Precipitation Wind Pressure Humidity
    00:00 +22°C° 0 mm 0 mps 737 mmHg 98%
    01:00 +22°C° 0 mm 0 mps 737 mmHg 98%
    02:00 +22°C° 0 mm 0 mps 737 mmHg 99%
    03:00 +22°C° 0 mm 0 mps 737 mmHg 99%
    04:00 +22°C° 0 mm 0 mps 737 mmHg 99%
    05:00 +21°C° 0 mm 0 mps 737 mmHg 99%
    06:00 +23°C° 0 mm 0 mps 737 mmHg 94%
    07:00 +24°C° 0 mm 0 mps 738 mmHg 89%
    08:00 +26°C° 0 mm 0 mps 738 mmHg 85%
    09:00 +28°C° 0 mm 0 mps 738 mmHg 75%
    10:00 +30°C° 0 mm 0 mps 737 mmHg 64%
    11:00 +32°C° 0 mm 0 mps 737 mmHg 54%
    12:00 +32°C° 0.4 mm 0 mps 736 mmHg 58%
    13:00 +33°C° 0.4 mm 1 mps 736 mmHg 61%
    14:00 +33°C° 0.4 mm 1 mps 735 mmHg 65%
    15:00 +31°C° 2.2 mm 1 mps 735 mmHg 74%
    16:00 +28°C° 2.2 mm 1 mps 735 mmHg 84%
    17:00 +26°C° 2.2 mm 1 mps 736 mmHg 94%
    18:00 +26°C° 0.1 mm 1 mps 736 mmHg 95%
    19:00 +25°C° 0.1 mm 1 mps 737 mmHg 96%
    20:00 +25°C° 0.1 mm 1 mps 738 mmHg 97%
    21:00 +25°C° 0 mm 1 mps 738 mmHg 97%
    22:00 +25°C° 0 mm 1 mps 738 mmHg 98%
    23:00 +22°C° 0 mm 0 mps 738 mmHg 98%

    Day after tomorrow, 23 October, Tuesday

    Time Temperature Precipitation Wind Pressure Humidity
    00:00 +22°C° 0 mm 0 mps 738 mmHg 98%
    01:00 +22°C° 0 mm 0 mps 737 mmHg 98%
    02:00 +22°C° 0 mm 0 mps 737 mmHg 99%
    03:00 +22°C° 0 mm 0 mps 737 mmHg 99%
    04:00 +22°C° 0 mm 0 mps 737 mmHg 99%
    05:00 +22°C° 0 mm 0 mps 737 mmHg 99%
    06:00 +23°C° 0 mm 0 mps 738 mmHg 94%
    07:00 +26°C° 0 mm 1 mps 738 mmHg 89%
    08:00 +27°C° 0 mm 1 mps 739 mmHg 85%
    09:00 +29°C° 0 mm 1 mps 738 mmHg 76%
    10:00 +31°C° 0 mm 1 mps 738 mmHg 67%
    11:00 +33°C° 0 mm 1 mps 738 mmHg 59%
    12:00 +33°C° 0.5 mm 1 mps 737 mmHg 62%
    13:00 +33°C° 0.5 mm 1 mps 736 mmHg 65%
    14:00 +32°C° 0.5 mm 1 mps 736 mmHg 68%
    15:00 +31°C° 0.6 mm 1 mps 736 mmHg 76%
    16:00 +29°C° 0.6 mm 1 mps 736 mmHg 84%
    17:00 +27°C° 0.6 mm 1 mps 736 mmHg 92%
    18:00 +27°C° 0.1 mm 1 mps 737 mmHg 93%
    19:00 +26°C° 0.1 mm 1 mps 737 mmHg 95%
    20:00 +25°C° 0.1 mm 1 mps 738 mmHg 97%
    21:00 +25°C° 0 mm 1 mps 738 mmHg 97%
    22:00 +25°C° 0 mm 1 mps 738 mmHg 98%
    23:00 +25°C° 0 mm 1 mps 738 mmHg 98%

    24 October, Wednesday

    Time Temperature Precipitation Wind Pressure Humidity
    00:00 +25°C° 0 mm 1 mps 738 mmHg 98%
    01:00 +24°C° 0 mm 1 mps 737 mmHg 99%
    02:00 +22°C° 0 mm 0 mps 737 mmHg 99%
    03:00 +22°C° 0 mm 0 mps 737 mmHg 99%
    04:00 +22°C° 0 mm 0 mps 737 mmHg 99%
    05:00 +24°C° 0 mm 1 mps 737 mmHg 99%
    06:00 +25°C° 0 mm 1 mps 737 mmHg 95%
    07:00 +26°C° 0 mm 1 mps 738 mmHg 92%
    08:00 +27°C° 0 mm 1 mps 738 mmHg 88%
    09:00 +28°C° 0 mm 1 mps 738 mmHg 81%
    10:00 +30°C° 0 mm 1 mps 737 mmHg 74%
    11:00 +31°C° 0 mm 1 mps 737 mmHg 67%
    12:00 +32°C° 0 mm 1 mps 736 mmHg 64%
    13:00 +33°C° 0 mm 1 mps 735 mmHg 62%
    14:00 +33°C° 0 mm 1 mps 735 mmHg 59%
    15:00 +32°C° 0.1 mm 1 mps 735 mmHg 67%
    16:00 +30°C° 0.1 mm 1 mps 735 mmHg 74%
    17:00 +29°C° 0.1 mm 1 mps 735 mmHg 82%
    18:00 +28°C° 0.7 mm 1 mps 736 mmHg 87%
    19:00 +27°C° 0.7 mm 1 mps 736 mmHg 92%
    20:00 +25°C° 0.7 mm 1 mps 737 mmHg 97%
    21:00 +25°C° 0.1 mm 1 mps 737 mmHg 98%
    22:00 +25°C° 0.1 mm 1 mps 737 mmHg 98%
    23:00 +25°C° 0.1 mm 1 mps 737 mmHg 99%

    25 October, Thursday

    Time Temperature Precipitation Wind Pressure Humidity
    00:00 +25°C° 0 mm 1 mps 736 mmHg 99%
    01:00 +24°C° 0 mm 1 mps 736 mmHg 99%
    02:00 +22°C° 0 mm 0 mps 736 mmHg 99%
    03:00 +22°C° 0 mm 0 mps 736 mmHg 99%
    04:00 +23°C° 0 mm 0 mps 736 mmHg 99%
    05:00 +23°C° 0 mm 0 mps 736 mmHg 98%
    06:00 +23°C° 0 mm 0 mps 737 mmHg 96%
    07:00 +24°C° 0 mm 0 mps 737 mmHg 93%
    08:00 +25°C° 0 mm 0 mps 738 mmHg 91%
    09:00 +27°C° 0 mm 0 mps 737 mmHg 82%
    10:00 +29°C° 0 mm 0 mps 737 mmHg 73%
    11:00 +31°C° 0 mm 0 mps 736 mmHg 64%
    12:00 +32°C° 0 mm 0 mps 736 mmHg 58%
    13:00 +33°C° 0 mm 0 mps 735 mmHg 52%
    14:00 +34°C° 0 mm 0 mps 734 mmHg 46%
    15:00 +34°C° 0.4 mm 1 mps 734 mmHg 57%
    16:00 +31°C° 0.4 mm 1 mps 735 mmHg 67%
    17:00 +29°C° 0.4 mm 1 mps 735 mmHg 78%
    18:00 +28°C° 0.1 mm 1 mps 735 mmHg 83%
    19:00 +27°C° 0.1 mm 1 mps 736 mmHg 88%
    20:00 +26°C° 0.1 mm 1 mps 737 mmHg 93%
    21:00 +26°C° 0 mm 1 mps 737 mmHg 94%
    22:00 +25°C° 0 mm 1 mps 736 mmHg 96%
    23:00 +25°C° 0 mm 1 mps 736 mmHg 97%

    26 October, Friday

    Time Temperature Precipitation Wind Pressure Humidity
    00:00 +25°C° 0.1 mm 1 mps 736 mmHg 97%
    01:00 +23°C° 0.1 mm 0 mps 736 mmHg 97%
    02:00 +23°C° 0.1 mm 0 mps 736 mmHg 96%
    03:00 +23°C° 0.1 mm 0 mps 736 mmHg 96%
    04:00 +23°C° 0.1 mm 0 mps 736 mmHg 97%
    05:00 +23°C° 0.1 mm 0 mps 736 mmHg 97%
    06:00 +24°C° 0 mm 0 mps 737 mmHg 91%
    07:00 +26°C° 0 mm 0 mps 737 mmHg 85%
    08:00 +29°C° 0 mm 1 mps 737 mmHg 80%
    09:00 +28°C° 0 mm 0 mps 737 mmHg 73%
    10:00 +30°C° 0 mm 0 mps 736 mmHg 65%
    11:00 +31°C° 0 mm 0 mps 736 mmHg 58%
    12:00 +31°C° 0.3 mm 0 mps 735 mmHg 58%
    13:00 +33°C° 0.3 mm 1 mps 735 mmHg 59%
    14:00 +34°C° 0.3 mm 1 mps 734 mmHg 59%
    15:00 +31°C° 0.8 mm 1 mps 735 mmHg 70%
    16:00 +29°C° 0.8 mm 1 mps 735 mmHg 81%
    17:00 +27°C° 0.8 mm 1 mps 735 mmHg 92%
    18:00 +26°C° 0.1 mm 1 mps 736 mmHg 94%
    19:00 +26°C° 0.1 mm 1 mps 737 mmHg 96%
    20:00 +25°C° 0.1 mm 1 mps 737 mmHg 97%
    21:00 +25°C° 0 mm 1 mps 737 mmHg 98%
    22:00 +25°C° 0 mm 1 mps 737 mmHg 98%
    23:00 +25°C° 0 mm 1 mps 737 mmHg 99%
    Show more